Location: Vinland
(47.7731°N, 122.6974°W)
Time: 06:25:55
(UTC+00:00)

Vanguard 2 - Pass Details

Date: 24 April 2024
Orbit: 552 x 2914 km, 32.9° (Epoch: 25 May)

Event Time Altitude Azimuth Distance (km) Brightness Sun altitude
Exits shadow 12:13:18 - 259° (W) 5,673 11.3 -8.5°
Reaches altitude 10° 12:14:53 10° 257° (WSW) 5,370 11.2 -8.3°
Maximum altitude 12:30:12 44° 193° (SSW) 3,639 10.7 -6.0°
Drops below altitude 10° 12:45:28 10° 129° (SE) 5,343 12.2 -3.7°
Sets 12:49:29 0° 123° (ESE) 6,129 12.6 -3.1°
